Weather in Andalusia

United States     31°18′49″N   86°28′43″W
temp.,
°C
wind,
m/s
gust,
m/s
humid.,
%
clouds,
%
prec.,
mm/h
press.,
hPa
HPBL,
m
16 may, sun
sun1601:00+14ese24665 0.0 102272
04:00+13e2471100 0.0 102281
07:00+15ese287789 0.0 1024213
10:00+23se364042 0.0 1024931
13:00+26ese333297 0.0 10231880
16:00+26ese443357 0.0 10201772
19:00+21e26611 0.0 1020115
22:00+16sse227529 0.0 102141
17 may, mon
mon1701:00+15e118314 0.0 102112
04:00+14ese287556 0.0 1020155
07:00+16se311805 0.0 1021332
10:00+24sse365495 0.0 10211119
13:00+28se343815 0.0 10202329
16:00+27se2348100 0.0 10181232
19:00+22sse2470100 0.0 101995
22:00+19ssw118465 0.0 102021
18 may, tue
tue1801:00+17e228814 0.0 101916
04:00+17ese2588100 0.0 1019122
07:00+18ese398130 0.0 1021365
10:00+25se575962 0.0 10211261
13:00+29ese454188 0.0 10202462
16:00+24sse3863100 0.0 1019347
19:00+22ssw2478100 0.1 1019107
22:00+20ssw118790 0.0 102013
19 may, wed
wed1901:00+18ese2292100 0.0 101932
04:00+18ese31191100 0.0 1020377
07:00+19ese311775 0.0 1022518
10:00+24ese57582 0.0 10221007
13:00+28ese57447 0.0 10211948
16:00+29e563978 0.0 10192187
19:00+24e236357 0.0 101956
22:00+21ene227153 0.0 102137
20 may, thu
thu2001:00+22ese4126476 0.0 1021415
04:00+20ese4127879 0.0 1021564
07:00+19e4118426 0.0 1023645
10:00+25ese585938 0.0 10241219
13:00+28e574571 0.0 10232069
16:00+29e574028 0.0 10212137
19:00+24e38565 0.0 1021213
22:00+23ene514515 0.0 1023651